Regional Weather Roundup
Issued by NWS

Home | Current Version | Previous Version | Graphics & Text | Print | Product List | Glossary On
Versions: 1 2 3 4 5 6 7 8 9 10 11 12 13 14 15 16 17 18 19 20 21 22 23 24 25 26 27 28 29 30 31 32 33 34 35 36 37 38 39 40 41 42 43 44 45 46 47 48 49 50
000
ASUS43 KBIS 040810
RWRND

NORTH DAKOTA REGIONAL WEATHER ROUNDUP
NATIONAL WEATHER SERVICE BISMARCK ND
200 AM CST WED MAR 04 2015

NOTE: "FAIR" INDICATES FEW OR NO CLOUDS BELOW 12,000 FEET WITH NO
SIGNIFICANT WEATHER AND/OR OBSTRUCTIONS TO VISIBILITY.


NDZ001>003-009>011-017-040900-
NORTHWEST NORTH DAKOTA

CITY           SKY/WX    TMP DP  RH WIND       PRES   REMARKS
WILLISTON      PTCLDY    -6 -14  68 NW12      30.15R WCI -25
MINOT          FAIR      -4 -12  68 W17       30.06R WCI -26
MINOT AFB      CLEAR     -7 -13  74 NW16      30.06R WCI -29
$$

NDZ018>021-031>035-040>046-040900-
SOUTHWEST NORTH DAKOTA

CITY           SKY/WX    TMP DP  RH WIND       PRES   REMARKS
BISMARCK       MOCLDY     2  -3  80 W5        30.06F WCI  -8
DICKINSON      CLEAR      1  -8  66 NW16G26   30.02R WCI -19
GARRISON         N/A     -3 -10  72 NW15      30.06R WCI -23
HETTINGER ARPT MOCLDY     4  -3  73 NW12      30.05R WCI -12
$$

NDZ004>008-012>016-024-026-027-054-040900-
NORTHEAST NORTH DAKOTA

CITY           SKY/WX    TMP DP  RH WIND       PRES   REMARKS
GRAND FORKS    CLEAR     -3 -12  65 NW10      30.05R WCI -20
GRND FRKS AFB  CLEAR     -3 -13  63 NW9       30.04R WCI -19
DEVILS LAKE    CLEAR     -6 -15  65 NW14      30.01R WCI -26
$$

NDZ022-023-025-028>030-036>039-047>053-040900-
SOUTHEAST NORTH DAKOTA

CITY           SKY/WX    TMP DP  RH WIND       PRES   REMARKS
FARGO          CLEAR     -2 -10  69 W10       30.08R WCI -19
JAMESTOWN      CLEAR     -2 -11  65 W12       30.03R WCI -20
$$




USA.gov is the U.S. government's official web portal to all federal, state and local government web resources and services.